Tracking 19193 objects as of 22-Jun-2018
HD Live streaming from Space Station
objects crossing your sky now

FENGYUN 1C DEB

Track FENGYUN 1C DEB now!
10-day predictions


NORAD ID: 31763
Int'l Code: 1999-025CFN
Perigee: 676.6 km
Apogee: 1,535.5 km
Inclination: 98.5 °
Period: 107.2 minutes
Semi major axis: 7477 km
RCS: 0.0081 m2 (small)
Launch date: May 10, 1999
Source: People's Republic of China (PRC)
Launch site: Taiyaun Space Center, China (TSC)

Note: This is SATELLITE DEBRIS
aabbcc
Your satellite tracking list
Your tracking list is empty




NASA's NSSDC Master Catalog

Two Line Element Set (TLE):
1 31763U 99025CFN 18172.82024546  .00000579  00000-0  40406-3 0  9993
2 31763  98.5186 290.0177 0574358 245.2795 272.3943 13.42800313544313
Source of the keplerian elements: AFSPC